www.pogodaiklimat.ru

Архив погоды в Курган-Тюбе (Таджикистан)

Время
(UTC), дата
18 21.01
21 21.01
00 22.01
03 22.01
06 22.01
09 22.01
12 22.01
15 22.01
18 22.01
21 22.01
00 23.01
03 23.01
06 23.01
09 23.01
12 23.01
15 23.01
18 23.01
21 23.01
00 24.01
03 24.01
06 24.01
09 24.01
12 24.01
15 24.01
18 24.01
21 24.01
00 25.01
03 25.01
06 25.01
09 25.01
12 25.01
15 25.01
18 25.01
21 25.01
00 26.01
03 26.01
06 26.01
09 26.01
12 26.01
15 26.01
18 26.01
21 26.01
00 27.01
03 27.01
06 27.01
09 27.01
12 27.01
15 27.01
18 27.01
21 27.01
03 28.01
06 28.01
09 28.01
12 28.01
15 28.01
Ветер
(напр.,м/с)
Видим. Явления Облачность Т
(С)
Тd
(С)
f
(%)
Тe
(С)
Тes
(С)
Комфортность P
(гПа)
Po
(гПа)
Тmin
(С)
Tmax
(С)
R
(мм)
R24
(мм)
S
(см)
СВ 1 н/о ясно -2.8 -4.4 89 -5 -5 холодно 1034.1 980.0 +3.6
СЗ 1 н/о туман, небо не видно ?/? -3.0 -3.7 95 -5 -5 прохладно 1034.3 980.0
С 1 н/о туман, небо видно ясно -4.0 -4.9 93 -6 -6 холодно 1034.5 980.0
В 1 2000 м дымка {туман} 10/10 600 м
[St]
-2.8 -4.1 91 -5 -5 холодно 1035.3 981.2 -4.2 6
штиль 0 2000 м дымка {туман} 10/10 600 м
[St]
-0.6 -3.4 81 -2 -2 прохладно 1035.6 981.9 -4.2
С 1 2000 м дымка 10/10 600 м
[St]
+1.2 -3.0 74 -0 -0 прохладно 1035.2 981.9
С 2 2000 м дымка 10/10 1000 м
[Sc]
+1.3 -1.6 81 -2 -2 холодно 1035.2 981.9
З 2 н/о 10/10 600 м
[St]
+0.2 -3.1 78 -3 -3 холодно 1036.3 982.7 +2.2
Ю 2 н/о 10/10 600 м
[St]
-0.2 -2.3 86 -4 -4 прохладно 1036.8 983.0 +2.2
Ю 1 н/о 10/10 1000 м
[Sc]
-1.0 -2.3 91 -3 -3 прохладно 1036.8 982.8
Ю 1 н/о 10/10 1500 м
[Sc]
-1.7 -2.5 94 -4 -4 прохладно 1036.4 982.4
штиль 0 10 км дымка 10/10 600 м
[St]
-1.6 -3.0 90 -3 -3 прохладно 1036.9 982.9 -1.8 5
С 1 2000 м дымка 9/8 1500 м
[Sc Ac trans Ci fib]
+0.4 -2.3 82 -1 -0 прохладно 1037.2 983.6 -1.8
СЗ 2 4000 м дымка 10/5 1500 м
[Sc Ac trans Cs]
+3.7 -3.3 60 +1 +3 прохладно 1034.0 981.1
ЮЗ 1 4000 м дымка ясно +3.7 -3.3 60 +3 +3 по сезону 1033.0 980.1
В 2 н/о ясно -0.3 -3.7 78 -4 -4 холодно 1035.1 981.4 +4.4
СВ 1 н/о ясно -1.8 -3.2 90 -4 -4 прохладно 1035.7 981.8 +4.4
ЮВ 1 н/о ясно -2.2 -3.1 94 -5 -5 прохладно 1034.7 980.6
Ю 2 н/о 10/0
[Ac und]
-2.6 -3.2 96 -7 -7 холодно 1034.9 980.8
ЮВ 2 2000 м дымка 10/10 600 м
[St]
-2.0 -3.2 91 -6 -6 холодно 1035.7 981.6 -3.3 2
штиль 0 50 км дымка ?/? -1.0 -4.6 77 -2 -2 холодно 1036.5 982.5 -3.3
штиль 0 4000 м дымка 10/10 1500 м
[Sc]
+0.6 -4.0 71 -0 -0 прохладно 1034.3 980.8
В 1 4000 м дымка 10/10 1500 м
[Sc]
+0.4 -3.2 77 -1 -1 холодно 1034.3 980.8
ЮВ 1 н/о 10/10 1500 м
[Sc]
-0.6 -3.0 84 -3 -3 холодно 1034.5 980.8 +1.0
Ю 1 н/о 10/10 1500 м
[Sc]
-0.2 -3.3 80 -2 -2 по сезону 1033.9 980.2 +1.0
ЮЗ 1 н/о 10/10 1500 м
[Sc]
-0.6 -3.0 84 -3 -3 прохладно 1033.9 980.2
ЮЗ 1 н/о 10/10 1500 м
[Sc]
-0.8 -3.6 81 -3 -3 по сезону 1033.9 980.2
Ю 1 4000 м дымка 10/0
[Ac und]
-0.9 -3.7 81 -3 -3 прохладно 1034.4 980.7 -1.1 1
В 2 4000 м дымка 6/0
[Ac trans]
+0.4 -5.0 67 -3 +1 холодно 1034.7 981.2
ЮВ 1 4000 м дымка 4/0
[Ci sp]
+2.6 -5.2 56 +2 +7 по сезону 1034.1 981.0
С 1 4000 м дымка 8/0
[Ac trans Ci sp]
+3.0 -3.8 61 +2 +2 прохладно 1032.7 979.9
СВ 1 н/о ясно -0.6 -3.0 84 -3 -3 холодно 1034.5 980.8 +3.2
С 1 н/о ясно -2.2 -3.4 91 -5 -5 холодно 1034.9 980.8 +3.2
СВ 1 н/о ясно -2.8 -3.8 93 -5 -5 прохладно 1034.9 980.8
В 1 н/о туман, небо не видно ?/? -5.1 -5.4 98 -8 -8 холодно 1034.5 979.9
ЮЗ 1 50 м переохл. туман ?/? -5.2 -5.9 95 -8 -8 очень
холодно
1034.5 979.9 -5.5
штиль 0 50 м переохл. туман ?/? -3.8 -4.6 94 -5 -5 очень
холодно
1035.7 981.4 -5.5
штиль 0 200 м переохл. туман ?/? -1.6 -1.9 98 -3 -3 холодно 1034.0 980.1
Ю 1 1000 м дымка {туман} ясно -1.0 -1.6 96 -3 -3 холодно 1032.9 979.1
З 1 н/о туман, небо не видно ?/? -3.6 -3.9 98 -6 -6 очень
холодно
1034.3 980.0 +3.5
С 2 н/о туман, небо не видно ?/? -3.5 -4.0 96 -8 -8 очень
холодно
1034.1 979.9 +3.5
СВ 1 н/о туман, небо не видно ?/? -3.4 -3.8 97 -6 -6 холодно 1033.0 978.8
С 1 н/о переохл. туман ?/? -3.5 -4.0 96 -6 -6 холодно 1033.6 978.4
В 2 50 м переохл. туман ?/? -3.4 -4.2 94 -8 -8 очень
холодно
1033.9 979.7 -3.7
С 1 50 м переохл. туман ?/? -2.8 -3.2 97 -5 -5 холодно 1034.9 980.8 -3.7
С 2 200 м туман, небо видно ясно +0.4 -0.2 96 -3 +2 холодно 1032.9 979.5
Ю 4 2000 м дымка {туман} 4/0
[Ci fib]
+2.4 -1.6 75 -2 -2 холодно 1030.3 977.4
ЮЗ 2 н/о туман, небо не видно ?/? -1.2 -1.8 96 -5 -5 холодно 1031.1 977.4 +3.8
С 2 н/о туман, небо не видно ?/? -2.0 -2.6 96 -6 -6 холодно 1031.6 977.7 +3.8
штиль 0 н/о туман, небо не видно ?/? -1.6 -2.1 96 -3 -3 прохладно 1030.4 976.7
штиль 0 50 м переохл. туман ?/? -2.6 -2.9 98 -4 -4 прохладно 1028.3 974.6 -2.7
С 1 50 м переохл. туман ?/? -1.0 -1.7 95 -3 -3 прохладно 1027.7 974.2 -2.7
С 1 200 м туман, небо видно 9/9 1500 м
[Sc]
+0.2 -0.3 96 -2 -1 прохладно 1025.3 972.3
ЮЗ 1 2000 м дымка {туман} 10/0
[Ac und]
+1.8 -1.6 78 0 0 прохладно 1022.9 970.2
СВ 1 н/о 9/9 1500 м
[Sc]
+1.0 -0.7 88 -1 -1 по сезону 1022.9 970.2 +2.3
Местоположение метеостанции Курган-Тюбе (Таджикистан): широта 37.82 долгота 68.78 высота над уровнем моря 429 м.
В архиве по умолчанию представлена погода в Курган-Тюбе за последнюю неделю. Архивные данные за месяц целиком и за предыдущие месяцы, начиная с января 2011 года, Вы можете получить, выбрав интересующий диапазон дат из раскрывающегося списка и нажав кнопку "Найти!".
*Определитесь, кто Вы:
Внимание! Время в таблицах - всемирное. Для получения местного времени необходимо прибавить поправку, которая равна 5 ч.
Смотрите также архив погоды в соседних городах и на ближайших метеорологических станциях:
Партнеры нашего сайта:      
Пояснения к столбцам:
  • Ветер - указаны скорость ветра в м/с - средняя за 10 мин, порывы в срок и между сроками (в фигурных скобках) и направление, откуда дует ветер: С - северный,
  • СВ - северо-восточный, В - восточный, ЮВ - юго-восточный, Ю - южный, ЮЗ - юго-западный, З - западный, СЗ - северо-западный.
  • Видимость - горизонтальная дальность видимости в метрах или километрах. При видимости от 1 до 10 км при отсутствии осадков обычно наблюдается дымка, при ухудшении видимости до 1 км и менее - туман. В сухую погоду видимость может ухудшаться дымом, пылью или мглою.
  • Явления - указаны атмосферные явления, наблюдавшиеся в срок или в последний час перед сроком; фигурными скобками обозначены явления, наблюдавшиеся между сроками (за 1-3 часа до срока); квадратными скобками обозначены град или гололедные отложения с указанием их диаметра в мм.
  • Облачность - указаны через наклонную черту общая и нижняя облачность в баллах и высота нижней границы облаков в метрах; квадратными скобками обозначены формы облаков: Ci - перистые, Cs - перисто-слоистые, Cc - перисто-кучевые, Ac - высококучевые, As - высокослоистые, Sc - слоисто-кучевые, Ns - слоисто-дождевые, Cu - кучевые, Cb - кучево-дождевые. Подробнее классификацию облаков см. в Атласе облаков (PDF).
  • T - Температура воздуха - температура, измеренная на высоте 2 м над землей.
  • Td - Температура точки росы - температура, при понижении до которой содержащийся в воздухе водяной пар достигнет насыщения.
  • f - Относительная влажность воздуха - влажноcть воздуха, измеренная на высоте 2 м над землей.
  • Te - Эффективная температура - температура, которую ощущает одетый по сезону человек в тени. Характеристика душности погоды. При расчете учитывается влияние влажности воздуха и скорости ветра на теплоощущения человека.
  • Tes - Эффективная температура на солнце - температура, которую ощущает человек, с поправкой на солнечный нагрев. Характеристика знойности погоды. Зависит от высоты солнца над горизонтом, облачности и скорости ветра. Ночью, в пасмурную погоду, а также при ветре 12 м/с и более поправка равна нулю.
  • P - Атмосферное давление - приведенное к уровню моря атмосферное давление.
  • Po - Атмосферное давление - измеренное на уровне метеостанции атмосферное давление.
  • Tmin - Минимальная температура - минимум температуры воздуха на высоте 2 м над землей.
  • Tmax - Максимальная температура - максимум температуры воздуха на высоте 2 м над землей.
  • R - Количество осадков - Количество выпавших осадков за период времени, мм. При наведении курсора мыши на число - период времени, за который выпало указанное количество осадков.
  • R24 - Количество осадков - Количество выпавших осадков за 24 часа, мм.
  • S - Снежный покров - Высота снежного покрова, см. При наведении курсора мыши на число - состояние снежного покрова и степень покрытия местности в баллах.